Regional Weather Roundup
Issued by NWS

Home | Current Version | Previous Version | Text Only | Print | Product List | Glossary Off
Versions: 1 2 3 4 5 6 7 8 9 10 11 12 13 14 15 16 17 18 19 20 21 22 23 24 25 26 27 28 29 30 31 32 33 34 35 36 37 38 39 40 41 42 43 44 45 46 47 48 49 50

000
ASUS43 KIND 281859
RWRIN

WEATHER ROUNDUP FOR INDIANA
NATIONAL WEATHER SERVICE INDIANAPOLIS IN
300 PM EDT THU MAY 28 2015

NOTE: "FAIR" INDICATES FEW OR NO CLOUDS BELOW 12,000 FEET WITH NO
SIGNIFICANT WEATHER AND/OR OBSTRUCTIONS TO VISIBILITY.

* - STATION DOES NOT REPORT WEATHER SUCH AS PRECIPITATION OR FOG.

+ - STATION NOT QUALITY CONTROLLED BY THE NATIONAL WEATHER SERVICE.
    USE DATA WITH CAUTION...ESPECIALLY DEWPOINT AND RELATIVE
    HUMIDITY OBSERVATIONS.

INZ001>003-010>013-019-020-282000-
NORTHWEST INDIANA

CITY           SKY/WX    TMP DP  RH WIND       PRES   REMARKS
GARY /AIRPORT/ MOSUNNY   79  59  50 NE10      30.18F
MONTICELLO +   SUNNY     78  59  51 SE10      30.17F
RENSSELAER +   SUNNY     81  54  39 E14       30.17F

$$

LMZ046-743>745-282000-
SOUTHERN LAKE MICHIGAN

STATION/POSITION TIME  TEMP    WIND        PRES    WAVE
                       AIR SEA DIR/SP/G            HT
                 (UTC) (F)     (DEG/KT/KT) (MB)    (FT)
BURNS HARBOR     1800   67      40/ 10/ 11 1022.4F
MICHIGAN CITY    1800   77      70/  9/ 13   N/A
5NW MICH CITY    1800   61 56   40/  4/  6   N/A     0

$$

INZ004-005-014>016-021>024-282000-
NORTH CENTRAL INDIANA

CITY           SKY/WX    TMP DP  RH WIND       PRES   REMARKS
ELKHART        SUNNY     79  54  41 E12       30.20F
GOSHEN         SUNNY     80  58  46 E10       30.19F
SOUTH BEND     SUNNY     81  53  37 SE14G20   30.19F
WARSAW +       SUNNY     79  59  50 SE7       30.20F

$$

INZ006>009-017-018-025>027-282000-
NORTHEAST INDIANA

CITY           SKY/WX    TMP DP  RH WIND       PRES   REMARKS
ANGOLA *+      SUNNY     79  55  44 S13       30.22F
FORT WAYNE     MOSUNNY   78  59  51 SE12      30.21F

$$

INZ028-029-035-036-043>045-051>053-282000-
WEST CENTRAL INDIANA

CITY           SKY/WX    TMP DP  RH WIND       PRES   REMARKS
CRAWFORDSVL +  SUNNY     79  46  32 S9        30.17F
GREENCASTLE +  MOSUNNY   81  54  39 S6        30.17F
LAFAYETTE      SUNNY     79  60  52 E9        30.15F
TERRE HAUTE    PTSUNNY   83  59  44 SW3       30.15F

$$

INZ030>032-037>040-046>048-054>057-064-065-282000-
CENTRAL INDIANA

CITY           SKY/WX    TMP DP  RH WIND       PRES   REMARKS
ANDERSON       MOSUNNY   81  52  36 E5        30.20F
COLUMBUS       MOSUNNY   81  57  44 S7        30.18F
GREENWOOD *+   MOSUNNY   81  57  44 SE9       30.18F
INDIANAPOLIS   MOSUNNY   82  58  43 SE5       30.15F
-EAGLE CREEK   SUNNY     82  58  43 E8        30.17F
KOKOMO *+      SUNNY     81  57  44 E13G23    30.17F
MT COMFORT *+  SUNNY     81  46  30 SE6       30.18F
SHELBYVILLE    MOSUNNY   84  61  45 SE8       30.17F

$$

INZ033-034-041-042-049-050-058-059-282000-
EAST CENTRAL INDIANA

CITY           SKY/WX    TMP DP  RH WIND       PRES   REMARKS
MUNCIE         MOSUNNY   82  58  43 E9        30.18F

$$

INZ060-061-067>069-081>083-085>088-282000-
SOUTHWEST INDIANA

CITY           SKY/WX    TMP DP  RH WIND       PRES   REMARKS
EVANSVILLE     PTSUNNY   82  66  58 S8        30.15F
HUNTINGBURG *+ PTSUNNY   79  66  65 SE6       30.17S

$$

INZ062-063-066-070>080-084-089>092-282000-
SOUTH CENTRAL AND SOUTHEAST INDIANA

CITY           SKY/WX    TMP DP  RH WIND       PRES   REMARKS
BLOOMINGTON    MOSUNNY   83  63  50 S7        30.17F
MADISON *+     PTSUNNY   79  63  57 S8        30.22S
SEYMOUR +      MOSUNNY   84  64  51 S7        30.18S

$$



USA.gov is the U.S. government's official web portal to all federal, state and local government web resources and services.